Time,TemperatureF,DewpointF,PressureIn,WindDirection,WindDirectionDegrees,WindSpeedMPH,WindSpeedGustMPH,Humidity,HourlyPrecipIn,Conditions,Clouds,dailyrainin,SoftwareType,DateUTC
2013-01-05 00:00:00,38.5,36.9,29.73,West,270,0.7,1.1,94,0.00,,,0.00,WUHU216HW,2013-01-05 08:00:00,
2013-01-05 00:05:00,38.5,36.9,29.73,West,270,0.0,1.1,94,0.00,,,0.00,WUHU216HW,2013-01-05 08:05:00,
2013-01-05 00:10:00,38.5,36.9,29.73,West,270,0.0,0.7,94,0.00,,,0.00,WUHU216HW,2013-01-05 08:10:00,
2013-01-05 00:15:00,38.5,36.9,29.73,West,270,0.0,0.0,94,0.00,,,0.00,WUHU216HW,2013-01-05 08:15:00,
2013-01-05 00:20:00,38.5,36.9,29.73,West,270,0.0,0.0,94,0.00,,,0.00,WUHU216HW,2013-01-05 08:20:00,
2013-01-05 00:25:00,38.7,37.1,29.73,West,270,0.0,0.0,94,0.00,,,0.00,WUHU216HW,2013-01-05 08:25:00,
2013-01-05 00:30:00,38.5,36.9,29.73,West,270,0.0,0.0,94,0.00,,,0.00,WUHU216HW,2013-01-05 08:30:00,
2013-01-05 00:35:00,38.5,36.9,29.73,West,270,0.0,0.0,94,0.00,,,0.00,WUHU216HW,2013-01-05 08:35:00,
2013-01-05 00:40:00,38.5,36.9,29.72,West,270,0.0,0.0,94,0.00,,,0.00,WUHU216HW,2013-01-05 08:40:00,
2013-01-05 00:45:00,38.5,36.9,29.72,North,0,2.0,2.0,94,0.00,,,0.00,WUHU216HW,2013-01-05 08:45:00,
2013-01-05 00:50:00,38.5,36.9,29.72,North,0,0.0,2.0,94,0.00,,,0.00,WUHU216HW,2013-01-05 08:50:00,
2013-01-05 00:55:00,38.5,36.9,29.72,North,0,0.0,1.1,94,0.00,,,0.00,WUHU216HW,2013-01-05 08:55:00,
2013-01-05 01:00:00,38.5,36.9,29.72,North,0,0.0,0.0,94,0.00,,,0.00,WUHU216HW,2013-01-05 09:00:00,
2013-01-05 01:05:00,38.5,36.9,29.73,North,0,0.0,0.0,94,0.00,,,0.00,WUHU216HW,2013-01-05 09:05:00,
2013-01-05 01:10:00,38.5,36.9,29.72,North,0,0.0,0.0,94,0.00,,,0.00,WUHU216HW,2013-01-05 09:10:00,
2013-01-05 01:15:00,38.5,36.9,29.72,North,0,0.7,1.1,94,0.00,,,0.00,WUHU216HW,2013-01-05 09:15:00,
2013-01-05 01:20:00,38.5,36.9,29.72,North,0,0.4,1.1,94,0.00,,,0.00,WUHU216HW,2013-01-05 09:20:00,
2013-01-05 01:25:00,38.3,36.7,29.71,North,0,0.2,1.1,94,0.00,,,0.00,WUHU216HW,2013-01-05 09:25:00,
2013-01-05 01:30:00,38.3,36.7,29.71,North,0,0.0,0.9,94,0.00,,,0.00,WUHU216HW,2013-01-05 09:30:00,
2013-01-05 01:35:00,38.3,36.7,29.71,North,0,0.0,0.9,94,0.00,,,0.00,WUHU216HW,2013-01-05 09:35:00,
2013-01-05 01:40:00,38.3,36.7,29.71,WSW,248,0.4,1.1,94,0.00,,,0.00,WUHU216HW,2013-01-05 09:40:00,
2013-01-05 01:45:00,38.5,36.9,29.71,WSW,248,1.1,1.1,94,0.00,,,0.00,WUHU216HW,2013-01-05 09:45:00,
2013-01-05 01:50:00,38.5,36.9,29.72,WSW,248,0.0,1.8,94,0.00,,,0.00,WUHU216HW,2013-01-05 09:50:00,
2013-01-05 01:55:00,38.5,36.9,29.72,WSW,248,0.0,1.8,94,0.00,,,0.00,WUHU216HW,2013-01-05 09:55:00,
2013-01-05 02:00:00,38.5,36.9,29.72,North,0,0.0,1.1,94,0.00,,,0.00,WUHU216HW,2013-01-05 10:00:00,
2013-01-05 02:05:00,38.5,36.9,29.73,SE,135,0.0,1.3,94,0.00,,,0.00,WUHU216HW,2013-01-05 10:05:00,
2013-01-05 02:10:00,38.5,36.9,29.73,SE,135,0.0,1.3,94,0.00,,,0.00,WUHU216HW,2013-01-05 10:10:00,
2013-01-05 02:15:00,38.5,36.9,29.73,NE,45,1.3,3.4,94,0.00,,,0.00,WUHU216HW,2013-01-05 10:15:00,
2013-01-05 02:20:00,38.5,36.9,29.72,NNE,23,0.0,3.4,94,0.00,,,0.00,WUHU216HW,2013-01-05 10:20:00,
2013-01-05 02:25:00,38.5,36.9,29.73,WSW,248,0.9,1.3,94,0.00,,,0.00,WUHU216HW,2013-01-05 10:25:00,
2013-01-05 02:30:00,38.5,36.9,29.73,WNW,293,0.7,1.6,94,0.00,,,0.00,WUHU216HW,2013-01-05 10:30:00,
2013-01-05 02:35:00,38.5,36.9,29.73,North,0,0.0,1.6,94,0.00,,,0.00,WUHU216HW,2013-01-05 10:35:00,
2013-01-05 02:40:00,38.7,37.1,29.73,NNE,23,1.1,1.8,94,0.00,,,0.00,WUHU216HW,2013-01-05 10:40:00,
2013-01-05 02:45:00,38.9,37.3,29.73,ENE,68,4.7,5.4,94,0.00,,,0.00,WUHU216HW,2013-01-05 10:45:00,
2013-01-05 02:50:00,39.2,37.6,29.73,NW,315,2.0,6.3,94,0.00,,,0.00,WUHU216HW,2013-01-05 10:50:00,
2013-01-05 02:55:00,39.6,38.0,29.73,WNW,293,2.5,6.3,94,0.00,,,0.00,WUHU216HW,2013-01-05 10:55:00,
2013-01-05 03:00:00,40.0,38.3,29.73,West,270,0.4,4.0,94,0.00,,,0.00,WUHU216HW,2013-01-05 11:00:00,
2013-01-05 03:05:00,40.1,38.5,29.73,ESE,113,0.2,3.4,94,0.00,,,0.00,WUHU216HW,2013-01-05 11:05:00,
2013-01-05 03:10:00,40.3,39.0,29.73,NNE,23,1.1,2.2,95,0.00,,,0.00,WUHU216HW,2013-01-05 11:10:00,
2013-01-05 03:15:00,40.3,39.0,29.73,NNW,338,0.0,2.2,95,0.00,,,0.00,WUHU216HW,2013-01-05 11:15:00,
2013-01-05 03:21:00,40.5,38.9,29.73,North,0,1.1,1.3,94,0.00,,,0.00,WUHU216HW,2013-01-05 11:21:00,
2013-01-05 03:25:00,40.3,38.7,29.73,NNW,338,0.0,1.1,94,0.00,,,0.00,WUHU216HW,2013-01-05 11:25:00,
2013-01-05 03:30:00,40.5,38.9,29.73,NNE,23,0.7,1.1,94,0.00,,,0.00,WUHU216HW,2013-01-05 11:30:00,
2013-01-05 03:35:00,40.5,38.9,29.73,North,0,1.3,1.3,94,0.00,,,0.00,WUHU216HW,2013-01-05 11:35:00,
2013-01-05 03:40:00,40.5,38.6,29.73,NNE,23,0.4,1.3,93,0.00,,,0.00,WUHU216HW,2013-01-05 11:40:00,
2013-01-05 03:45:00,40.5,38.6,29.73,NW,315,0.7,1.3,93,0.00,,,0.00,WUHU216HW,2013-01-05 11:45:00,
2013-01-05 03:50:00,40.5,38.6,29.73,West,270,0.9,1.3,93,0.00,,,0.00,WUHU216HW,2013-01-05 11:50:00,
2013-01-05 03:55:00,40.7,38.8,29.73,SW,225,0.4,1.3,93,0.00,,,0.00,WUHU216HW,2013-01-05 11:55:00,
2013-01-05 04:00:00,40.7,38.5,29.73,SW,225,0.0,1.1,92,0.00,,,0.00,WUHU216HW,2013-01-05 12:00:00,
2013-01-05 04:05:00,40.7,38.5,29.73,SSE,158,0.9,1.8,92,0.00,,,0.00,WUHU216HW,2013-01-05 12:05:00,
2013-01-05 04:10:00,40.5,38.3,29.73,SSE,158,0.0,1.8,92,0.00,,,0.00,WUHU216HW,2013-01-05 12:10:00,
2013-01-05 04:15:00,40.3,37.9,29.73,SSW,203,0.7,1.1,91,0.00,,,0.00,WUHU216HW,2013-01-05 12:15:00,
2013-01-05 04:20:00,40.3,37.9,29.73,SW,225,0.0,1.1,91,0.00,,,0.00,WUHU216HW,2013-01-05 12:20:00,
2013-01-05 04:25:00,40.3,37.9,29.73,SSW,203,0.0,0.7,91,0.00,,,0.00,WUHU216HW,2013-01-05 12:25:00,
2013-01-05 04:30:00,40.3,37.9,29.72,SSW,203,0.0,0.0,91,0.00,,,0.00,WUHU216HW,2013-01-05 12:30:00,
2013-01-05 04:35:00,40.1,37.7,29.73,WNW,293,1.8,1.8,91,0.00,,,0.00,WUHU216HW,2013-01-05 12:35:00,
2013-01-05 04:40:00,40.1,37.7,29.72,North,0,0.0,1.8,91,0.00,,,0.00,WUHU216HW,2013-01-05 12:40:00,
2013-01-05 04:45:00,40.1,37.7,29.72,ESE,113,0.0,1.8,91,0.00,,,0.00,WUHU216HW,2013-01-05 12:45:00,
2013-01-05 04:50:00,40.1,37.7,29.72,WSW,248,0.2,1.1,91,0.00,,,0.00,WUHU216HW,2013-01-05 12:50:00,
2013-01-05 04:55:00,40.1,37.7,29.72,NW,315,0.0,1.1,91,0.00,,,0.00,WUHU216HW,2013-01-05 12:55:00,
2013-01-05 05:00:00,40.1,37.7,29.72,NW,315,0.2,0.4,91,0.00,,,0.00,WUHU216HW,2013-01-05 13:00:00,
2013-01-05 05:05:00,40.0,37.5,29.72,SW,225,1.1,1.6,91,0.00,,,0.00,WUHU216HW,2013-01-05 13:05:00,
2013-01-05 05:10:00,40.0,37.5,29.72,SW,225,0.0,1.6,91,0.00,,,0.00,WUHU216HW,2013-01-05 13:10:00,
2013-01-05 05:15:00,40.0,37.5,29.72,North,0,0.2,1.1,91,0.00,,,0.00,WUHU216HW,2013-01-05 13:15:00,
2013-01-05 05:20:00,39.8,37.4,29.72,North,0,0.0,0.9,91,0.00,,,0.00,WUHU216HW,2013-01-05 13:20:00,
2013-01-05 05:25:00,40.0,37.5,29.72,North,0,0.0,0.7,91,0.00,,,0.00,WUHU216HW,2013-01-05 13:25:00,
2013-01-05 05:30:00,39.8,37.4,29.72,North,0,0.0,0.7,91,0.00,,,0.00,WUHU216HW,2013-01-05 13:30:00,
2013-01-05 05:35:00,39.8,37.4,29.72,North,0,0.0,0.4,91,0.00,,,0.00,WUHU216HW,2013-01-05 13:35:00,
2013-01-05 05:40:00,39.8,37.4,29.72,North,0,0.0,0.0,91,0.00,,,0.00,WUHU216HW,2013-01-05 13:40:00,
2013-01-05 05:45:00,39.8,37.4,29.72,North,0,0.0,0.0,91,0.00,,,0.00,WUHU216HW,2013-01-05 13:45:00,
2013-01-05 05:50:00,39.6,37.2,29.72,WSW,248,0.0,2.2,91,0.00,,,0.00,WUHU216HW,2013-01-05 13:50:00,
2013-01-05 05:55:00,39.6,37.2,29.72,WSW,248,0.0,2.2,91,0.00,,,0.00,WUHU216HW,2013-01-05 13:55:00,
2013-01-05 06:00:00,39.6,36.9,29.73,WSW,248,1.8,2.7,90,0.00,,,0.00,WUHU216HW,2013-01-05 14:00:00,
2013-01-05 06:05:00,40.0,37.3,29.73,WNW,293,1.8,2.7,90,0.00,,,0.00,WUHU216HW,2013-01-05 14:05:00,
2013-01-05 06:11:00,40.0,37.3,29.73,NNE,23,0.0,1.8,90,0.00,,,0.00,WUHU216HW,2013-01-05 14:11:00,
2013-01-05 06:16:00,39.8,37.1,29.73,North,0,1.1,1.8,90,0.00,,,0.00,WUHU216HW,2013-01-05 14:16:00,
2013-01-05 06:21:00,39.8,37.1,29.73,ENE,68,2.5,2.5,90,0.00,,,0.00,WUHU216HW,2013-01-05 14:21:00,
2013-01-05 06:26:00,40.0,37.0,29.73,North,0,1.8,2.5,89,0.00,,,0.00,WUHU216HW,2013-01-05 14:26:00,
2013-01-05 06:31:00,40.0,36.6,29.73,North,0,1.3,3.6,88,0.00,,,0.00,WUHU216HW,2013-01-05 14:31:00,
2013-01-05 06:36:00,40.1,36.8,29.73,WNW,293,0.2,3.6,88,0.00,,,0.00,WUHU216HW,2013-01-05 14:36:00,
2013-01-05 06:41:00,40.3,36.7,29.73,East,90,0.0,1.6,87,0.00,,,0.00,WUHU216HW,2013-01-05 14:41:00,
2013-01-05 06:46:00,40.3,36.7,29.73,NE,45,1.3,1.6,87,0.00,,,0.00,WUHU216HW,2013-01-05 14:46:00,
2013-01-05 06:51:00,40.3,36.7,29.73,NNE,23,0.0,1.3,87,0.00,,,0.00,WUHU216HW,2013-01-05 14:51:00,
2013-01-05 06:56:00,40.3,36.7,29.73,NNE,23,0.0,1.1,87,0.00,,,0.00,WUHU216HW,2013-01-05 14:56:00,
2013-01-05 07:01:00,40.3,36.7,29.73,NNE,23,0.7,1.1,87,0.00,,,0.00,WUHU216HW,2013-01-05 15:01:00,
2013-01-05 07:06:00,40.1,36.5,29.73,NNE,23,0.0,1.1,87,0.00,,,0.00,WUHU216HW,2013-01-05 15:06:00,
2013-01-05 07:11:00,40.1,36.5,29.73,NNE,23,0.0,0.9,87,0.00,,,0.00,WUHU216HW,2013-01-05 15:11:00,
2013-01-05 07:16:00,40.1,36.5,29.73,NNE,23,0.0,0.4,87,0.00,,,0.00,WUHU216HW,2013-01-05 15:16:00,
2013-01-05 07:21:00,40.1,36.5,29.73,SSE,158,0.4,0.9,87,0.00,,,0.00,WUHU216HW,2013-01-05 15:21:00,
2013-01-05 07:26:00,40.1,36.5,29.74,SSW,203,1.1,1.1,87,0.00,,,0.00,WUHU216HW,2013-01-05 15:26:00,
2013-01-05 07:31:00,40.0,36.4,29.75,WSW,248,1.3,1.8,87,0.00,,,0.00,WUHU216HW,2013-01-05 15:31:00,
2013-01-05 07:36:00,40.0,36.4,29.75,WSW,248,0.0,1.8,87,0.00,,,0.00,WUHU216HW,2013-01-05 15:36:00,
2013-01-05 07:41:00,40.0,36.4,29.75,WSW,248,0.7,0.9,87,0.00,,,0.00,WUHU216HW,2013-01-05 15:41:00,
2013-01-05 07:46:00,40.0,36.4,29.75,WSW,248,0.0,0.7,87,0.00,,,0.00,WUHU216HW,2013-01-05 15:46:00,
2013-01-05 07:51:00,40.0,36.6,29.75,WSW,248,0.9,0.9,88,0.00,,,0.00,WUHU216HW,2013-01-05 15:51:00,
2013-01-05 07:56:00,40.0,36.6,29.75,WSW,248,0.0,0.9,88,0.00,,,0.00,WUHU216HW,2013-01-05 15:56:00,
2013-01-05 08:01:00,40.0,36.6,29.75,WSW,248,0.0,0.9,88,0.00,,,0.00,WUHU216HW,2013-01-05 16:01:00,
2013-01-05 08:06:00,39.8,36.8,29.76,WSW,248,0.0,0.0,89,0.00,,,0.00,WUHU216HW,2013-01-05 16:06:00,
2013-01-05 08:11:00,39.8,36.8,29.75,WSW,248,0.7,1.1,89,0.00,,,0.00,WUHU216HW,2013-01-05 16:11:00,
2013-01-05 08:16:00,39.8,36.8,29.76,WNW,293,0.0,1.1,89,0.00,,,0.00,WUHU216HW,2013-01-05 16:16:00,
2013-01-05 08:21:00,39.8,36.8,29.75,North,0,1.1,1.6,89,0.00,,,0.00,WUHU216HW,2013-01-05 16:21:00,
2013-01-05 08:25:00,39.8,36.8,29.76,North,0,1.6,1.6,89,0.00,,,0.00,WUHU216HW,2013-01-05 16:25:00,
2013-01-05 08:31:00,39.8,36.8,29.76,NNE,23,0.0,1.6,89,0.00,,,0.00,WUHU216HW,2013-01-05 16:31:00,
2013-01-05 08:36:00,39.8,36.8,29.76,ENE,68,0.9,1.8,89,0.00,,,0.00,WUHU216HW,2013-01-05 16:36:00,
2013-01-05 08:41:00,40.0,37.0,29.76,NNE,23,2.9,3.4,89,0.00,,,0.00,WUHU216HW,2013-01-05 16:41:00,
2013-01-05 08:46:00,40.0,37.0,29.76,NE,45,2.9,3.4,89,0.00,,,0.00,WUHU216HW,2013-01-05 16:46:00,
2013-01-05 08:50:00,40.0,37.0,29.76,North,0,1.3,4.3,89,0.00,,,0.00,WUHU216HW,2013-01-05 16:50:00,
2013-01-05 08:55:00,40.0,36.6,29.76,ENE,68,3.8,4.3,88,0.00,,,0.00,WUHU216HW,2013-01-05 16:55:00,
2013-01-05 09:00:00,40.1,36.8,29.76,NE,45,2.7,4.0,88,0.00,,,0.00,WUHU216HW,2013-01-05 17:00:00,
2013-01-05 09:06:00,40.1,36.5,29.76,North,0,1.3,3.8,87,0.00,,,0.00,WUHU216HW,2013-01-05 17:06:00,
2013-01-05 09:10:00,40.3,36.7,29.76,NNE,23,1.8,4.0,87,0.00,,,0.00,WUHU216HW,2013-01-05 17:10:00,
2013-01-05 09:15:00,40.5,36.9,29.76,NE,45,3.4,4.0,87,0.00,,,0.00,WUHU216HW,2013-01-05 17:15:00,
2013-01-05 09:21:00,40.5,36.9,29.76,NNE,23,2.9,4.7,87,0.00,,,0.00,WUHU216HW,2013-01-05 17:21:00,
2013-01-05 09:25:00,40.5,36.9,29.76,NNE,23,2.9,4.7,87,0.00,,,0.00,WUHU216HW,2013-01-05 17:25:00,
2013-01-05 09:31:00,40.5,37.2,29.76,North,0,1.6,4.0,88,0.00,,,0.00,WUHU216HW,2013-01-05 17:31:00,
2013-01-05 09:36:00,40.5,37.2,29.75,NNE,23,2.5,4.7,88,0.00,,,0.00,WUHU216HW,2013-01-05 17:36:00,
2013-01-05 09:41:00,40.5,37.2,29.76,NE,45,2.7,4.7,88,0.00,,,0.00,WUHU216HW,2013-01-05 17:41:00,
2013-01-05 09:45:00,40.5,37.2,29.76,North,0,1.8,4.5,88,0.00,,,0.00,WUHU216HW,2013-01-05 17:45:00,
2013-01-05 09:51:00,40.7,37.4,29.76,NNE,23,2.2,4.5,88,0.00,,,0.00,WUHU216HW,2013-01-05 17:51:00,
2013-01-05 09:56:00,40.7,37.4,29.76,ENE,68,3.8,5.4,88,0.00,,,0.00,WUHU216HW,2013-01-05 17:56:00,
2013-01-05 10:01:00,40.9,37.5,29.77,WNW,293,0.9,5.4,88,0.00,,,0.00,WUHU216HW,2013-01-05 18:01:00,
2013-01-05 10:06:00,40.9,37.5,29.77,NE,45,0.2,3.8,88,0.01,,,0.00,WUHU216HW,2013-01-05 18:06:00,
2013-01-05 10:11:00,40.9,37.5,29.77,WSW,248,0.4,2.0,88,0.01,,,0.00,WUHU216HW,2013-01-05 18:11:00,
2013-01-05 10:15:00,40.7,37.4,29.77,NW,315,0.0,1.1,88,0.01,,,0.00,WUHU216HW,2013-01-05 18:15:00,
2013-01-05 10:20:00,40.7,37.4,29.77,North,0,1.8,1.8,88,0.01,,,0.00,WUHU216HW,2013-01-05 18:20:00,
2013-01-05 10:25:00,40.7,37.7,29.77,NNE,23,1.8,1.8,89,0.01,,,0.00,WUHU216HW,2013-01-05 18:25:00,
2013-01-05 10:30:00,40.7,37.7,29.77,NNE,23,1.3,3.1,89,0.01,,,0.00,WUHU216HW,2013-01-05 18:30:00,
2013-01-05 10:36:00,40.9,37.9,29.76,North,0,2.0,3.4,89,0.01,,,0.00,WUHU216HW,2013-01-05 18:36:00,
2013-01-05 10:41:00,40.7,38.0,29.77,West,270,0.0,4.0,90,0.01,,,0.00,WUHU216HW,2013-01-05 18:41:00,
2013-01-05 10:46:00,40.9,38.2,29.76,NNE,23,0.4,4.0,90,0.02,,,0.02,WUHU216HW,2013-01-05 18:46:00,
2013-01-05 10:51:00,41.0,38.3,29.76,ESE,113,0.4,2.7,90,0.02,,,0.02,WUHU216HW,2013-01-05 18:51:00,
2013-01-05 10:55:00,41.0,38.3,29.76,NNE,23,1.8,2.2,90,0.02,,,0.02,WUHU216HW,2013-01-05 18:55:00,
2013-01-05 11:01:00,41.0,38.3,29.76,NE,45,1.6,1.8,90,0.02,,,0.02,WUHU216HW,2013-01-05 19:01:00,
2013-01-05 11:05:00,41.2,38.5,29.76,NW,315,1.1,1.8,90,0.01,,,0.02,WUHU216HW,2013-01-05 19:05:00,
2013-01-05 11:11:00,41.2,38.5,29.76,North,0,0.4,2.2,90,0.01,,,0.02,WUHU216HW,2013-01-05 19:11:00,
2013-01-05 11:16:00,41.2,38.5,29.75,NNE,23,1.8,4.7,90,0.01,,,0.02,WUHU216HW,2013-01-05 19:16:00,
2013-01-05 11:21:00,41.2,38.5,29.75,NNE,23,3.8,4.9,90,0.01,,,0.02,WUHU216HW,2013-01-05 19:21:00,
2013-01-05 11:26:00,41.4,38.7,29.75,ENE,68,1.8,7.4,90,0.01,,,0.02,WUHU216HW,2013-01-05 19:26:00,
2013-01-05 11:31:00,41.4,38.7,29.75,NNE,23,1.6,7.4,90,0.01,,,0.02,WUHU216HW,2013-01-05 19:31:00,
2013-01-05 11:36:00,41.4,38.7,29.75,NNE,23,0.9,3.4,90,0.01,,,0.02,WUHU216HW,2013-01-05 19:36:00,
2013-01-05 11:40:00,41.6,38.9,29.75,North,0,1.8,3.1,90,0.00,,,0.02,WUHU216HW,2013-01-05 19:40:00,
2013-01-05 11:45:00,41.6,38.9,29.75,NNE,23,4.5,4.5,90,0.00,,,0.02,WUHU216HW,2013-01-05 19:45:00,
2013-01-05 11:50:00,41.6,38.9,29.75,ESE,113,0.4,4.5,90,0.00,,,0.02,WUHU216HW,2013-01-05 19:50:00,
2013-01-05 11:55:00,41.8,39.1,29.75,NE,45,1.1,4.5,90,0.00,,,0.02,WUHU216HW,2013-01-05 19:55:00,
2013-01-05 12:00:00,41.8,39.1,29.75,North,0,1.6,3.6,90,0.00,,,0.02,WUHU216HW,2013-01-05 20:00:00,
2013-01-05 12:05:00,41.9,39.2,29.75,NE,45,3.4,3.8,90,0.00,,,0.02,WUHU216HW,2013-01-05 20:05:00,
2013-01-05 12:10:00,42.1,39.4,29.74,ENE,68,2.0,4.7,90,0.00,,,0.02,WUHU216HW,2013-01-05 20:10:00,
2013-01-05 12:15:00,42.1,39.4,29.74,North,0,2.0,4.7,90,0.00,,,0.02,WUHU216HW,2013-01-05 20:15:00,
2013-01-05 12:20:00,42.3,39.3,29.74,North,0,2.5,4.7,89,0.00,,,0.02,WUHU216HW,2013-01-05 20:20:00,
2013-01-05 12:25:00,42.5,39.5,29.74,NE,45,2.9,4.0,89,0.00,,,0.02,WUHU216HW,2013-01-05 20:25:00,
2013-01-05 12:30:00,42.5,39.5,29.73,North,0,2.9,6.9,89,0.00,,,0.02,WUHU216HW,2013-01-05 20:30:00,
2013-01-05 12:35:00,42.7,39.7,29.74,NNE,23,2.5,6.9,89,0.00,,,0.02,WUHU216HW,2013-01-05 20:35:00,
2013-01-05 12:40:00,42.7,39.3,29.73,NNE,23,3.6,6.5,88,0.00,,,0.02,WUHU216HW,2013-01-05 20:40:00,
2013-01-05 12:45:00,42.8,39.5,29.73,North,0,1.8,5.6,88,0.00,,,0.02,WUHU216HW,2013-01-05 20:45:00,
2013-01-05 12:50:00,42.8,39.5,29.73,NNW,338,1.1,3.6,88,0.00,,,0.02,WUHU216HW,2013-01-05 20:50:00,
2013-01-05 12:55:00,42.8,39.5,29.73,NW,315,1.8,3.4,88,0.00,,,0.02,WUHU216HW,2013-01-05 20:55:00,
2013-01-05 13:00:00,42.8,39.5,29.73,SSW,203,1.3,5.1,88,0.00,,,0.02,WUHU216HW,2013-01-05 21:00:00,
2013-01-05 13:05:00,42.8,39.3,29.73,NNW,338,0.7,5.1,87,0.00,,,0.02,WUHU216HW,2013-01-05 21:05:00,
2013-01-05 13:10:00,43.0,39.7,29.73,North,0,1.3,2.5,88,0.00,,,0.02,WUHU216HW,2013-01-05 21:10:00,
2013-01-05 13:15:00,43.0,39.4,29.73,North,0,1.1,2.5,87,0.00,,,0.02,WUHU216HW,2013-01-05 21:15:00,
2013-01-05 13:20:00,43.0,39.4,29.73,WNW,293,1.1,3.4,87,0.00,,,0.02,WUHU216HW,2013-01-05 21:20:00,
2013-01-05 13:25:00,43.0,39.4,29.73,North,0,1.1,3.4,87,0.00,,,0.02,WUHU216HW,2013-01-05 21:25:00,
2013-01-05 13:30:00,43.0,39.4,29.73,NNE,23,0.4,2.5,87,0.00,,,0.02,WUHU216HW,2013-01-05 21:30:00,
2013-01-05 13:35:00,43.2,39.2,29.72,NNW,338,0.4,3.6,86,0.00,,,0.02,WUHU216HW,2013-01-05 21:35:00,
2013-01-05 13:40:00,43.2,39.2,29.72,North,0,2.5,3.8,86,0.00,,,0.02,WUHU216HW,2013-01-05 21:40:00,
2013-01-05 13:45:00,43.2,39.2,29.72,ESE,113,0.4,4.0,86,0.00,,,0.02,WUHU216HW,2013-01-05 21:45:00,
2013-01-05 13:50:00,43.2,39.2,29.71,NE,45,4.0,4.7,86,0.00,,,0.02,WUHU216HW,2013-01-05 21:50:00,
2013-01-05 13:55:00,43.2,39.2,29.71,North,0,1.3,6.5,86,0.00,,,0.02,WUHU216HW,2013-01-05 21:55:00,
2013-01-05 14:00:00,43.2,39.2,29.71,North,0,2.0,6.5,86,0.00,,,0.02,WUHU216HW,2013-01-05 22:00:00,
2013-01-05 14:05:00,43.0,39.1,29.71,North,0,0.9,3.8,86,0.00,,,0.02,WUHU216HW,2013-01-05 22:05:00,
2013-01-05 14:10:00,43.0,39.1,29.71,North,0,0.4,4.7,86,0.00,,,0.02,WUHU216HW,2013-01-05 22:10:00,
2013-01-05 14:15:00,43.0,39.1,29.71,North,0,3.4,4.7,86,0.00,,,0.02,WUHU216HW,2013-01-05 22:15:00,
2013-01-05 14:20:00,43.0,39.1,29.71,NNE,23,1.8,5.8,86,0.00,,,0.02,WUHU216HW,2013-01-05 22:20:00,
2013-01-05 14:25:00,43.0,39.1,29.71,North,0,1.6,5.8,86,0.00,,,0.02,WUHU216HW,2013-01-05 22:25:00,
2013-01-05 14:30:00,43.2,39.2,29.71,North,0,1.3,4.7,86,0.00,,,0.02,WUHU216HW,2013-01-05 22:30:00,
2013-01-05 14:35:00,43.2,39.0,29.70,NNE,23,1.6,6.9,85,0.00,,,0.02,WUHU216HW,2013-01-05 22:35:00,
2013-01-05 14:40:00,43.2,39.0,29.70,North,0,6.3,6.9,85,0.00,,,0.02,WUHU216HW,2013-01-05 22:40:00,
2013-01-05 14:45:00,43.2,39.0,29.70,North,0,1.8,6.3,85,0.00,,,0.02,WUHU216HW,2013-01-05 22:45:00,
2013-01-05 14:50:00,43.2,39.0,29.71,NNE,23,2.7,6.3,85,0.00,,,0.02,WUHU216HW,2013-01-05 22:50:00,
2013-01-05 14:55:00,43.2,39.0,29.71,West,270,0.4,4.9,85,0.00,,,0.02,WUHU216HW,2013-01-05 22:55:00,
2013-01-05 15:00:00,43.2,39.0,29.71,NNE,23,2.7,2.9,85,0.00,,,0.02,WUHU216HW,2013-01-05 23:00:00,
2013-01-05 15:05:00,43.2,39.0,29.71,NNW,338,0.9,3.4,85,0.00,,,0.02,WUHU216HW,2013-01-05 23:05:00,
2013-01-05 15:10:00,43.2,38.7,29.71,NNE,23,0.4,3.8,84,0.00,,,0.02,WUHU216HW,2013-01-05 23:10:00,
2013-01-05 15:15:00,43.2,39.0,29.71,NW,315,1.1,3.8,85,0.00,,,0.02,WUHU216HW,2013-01-05 23:15:00,
2013-01-05 15:20:00,43.0,38.8,29.70,NW,315,0.7,1.8,85,0.00,,,0.02,WUHU216HW,2013-01-05 23:20:00,
2013-01-05 15:25:00,43.0,38.8,29.70,WNW,293,0.4,1.1,85,0.00,,,0.02,WUHU216HW,2013-01-05 23:25:00,
2013-01-05 15:30:00,42.8,38.6,29.70,West,270,0.4,1.3,85,0.00,,,0.02,WUHU216HW,2013-01-05 23:30:00,
2013-01-05 15:35:00,42.8,38.9,29.70,West,270,0.0,1.3,86,0.00,,,0.02,WUHU216HW,2013-01-05 23:35:00,
2013-01-05 15:40:00,42.7,38.4,29.70,NW,315,0.4,1.1,85,0.00,,,0.02,WUHU216HW,2013-01-05 23:40:00,
2013-01-05 15:45:00,42.5,38.3,29.70,North,0,0.4,2.9,85,0.00,,,0.02,WUHU216HW,2013-01-05 23:45:00,
2013-01-05 15:50:00,42.5,38.3,29.70,SW,225,1.1,2.9,85,0.00,,,0.02,WUHU216HW,2013-01-05 23:50:00,
2013-01-05 15:55:00,42.3,38.3,29.70,SSE,158,0.4,1.1,86,0.00,,,0.02,WUHU216HW,2013-01-05 23:55:00,
2013-01-05 16:00:00,42.3,38.3,29.70,ENE,68,0.0,1.1,86,0.00,,,0.02,WUHU216HW,2013-01-06 00:00:00,
2013-01-05 16:05:00,42.3,38.3,29.69,South,180,1.1,1.1,86,0.00,,,0.02,WUHU216HW,2013-01-06 00:05:00,
2013-01-05 16:10:00,42.1,38.2,29.69,NNE,23,1.1,1.6,86,0.00,,,0.02,WUHU216HW,2013-01-06 00:10:00,
2013-01-05 16:15:00,42.1,38.2,29.68,NNW,338,0.4,2.9,86,0.00,,,0.02,WUHU216HW,2013-01-06 00:15:00,
2013-01-05 16:20:00,42.1,38.2,29.68,NE,45,2.9,2.9,86,0.00,,,0.02,WUHU216HW,2013-01-06 00:20:00,
2013-01-05 16:25:00,42.3,38.3,29.68,SSW,203,1.1,4.0,86,0.00,,,0.02,WUHU216HW,2013-01-06 00:25:00,
2013-01-05 16:30:00,42.5,38.5,29.69,SW,225,2.2,4.0,86,0.00,,,0.02,WUHU216HW,2013-01-06 00:30:00,
2013-01-05 16:35:00,42.5,38.5,29.69,SSW,203,0.9,2.7,86,0.00,,,0.02,WUHU216HW,2013-01-06 00:35:00,
2013-01-05 16:40:00,42.3,38.3,29.69,WSW,248,0.4,2.2,86,0.00,,,0.02,WUHU216HW,2013-01-06 00:40:00,
2013-01-05 16:45:00,42.3,38.3,29.69,WSW,248,0.7,1.6,86,0.00,,,0.02,WUHU216HW,2013-01-06 00:45:00,
2013-01-05 16:50:00,42.1,38.2,29.69,WSW,248,0.4,1.1,86,0.00,,,0.02,WUHU216HW,2013-01-06 00:50:00,
2013-01-05 16:55:00,42.1,38.2,29.69,SW,225,0.0,1.1,86,0.00,,,0.02,WUHU216HW,2013-01-06 00:55:00,
2013-01-05 17:00:00,42.1,38.2,29.68,West,270,0.0,1.3,86,0.00,,,0.02,WUHU216HW,2013-01-06 01:00:00,
2013-01-05 17:05:00,42.1,38.2,29.69,NE,45,1.1,1.3,86,0.00,,,0.02,WUHU216HW,2013-01-06 01:05:00,
2013-01-05 17:10:00,41.9,38.0,29.69,East,90,0.0,1.8,86,0.00,,,0.02,WUHU216HW,2013-01-06 01:10:00,
2013-01-05 17:15:00,41.9,38.0,29.69,NE,45,0.0,2.0,86,0.00,,,0.02,WUHU216HW,2013-01-06 01:15:00,
2013-01-05 17:21:00,41.9,38.0,29.68,NNW,338,0.4,2.0,86,0.00,,,0.02,WUHU216HW,2013-01-06 01:21:00,
2013-01-05 17:26:00,41.9,38.0,29.68,SE,135,2.5,2.5,86,0.00,,,0.02,WUHU216HW,2013-01-06 01:26:00,
2013-01-05 17:31:00,41.9,38.0,29.68,NNW,338,2.5,2.5,86,0.00,,,0.02,WUHU216HW,2013-01-06 01:31:00,
2013-01-05 17:36:00,41.9,37.7,29.68,WSW,248,0.4,2.5,85,0.00,,,0.02,WUHU216HW,2013-01-06 01:36:00,
2013-01-05 17:40:00,41.9,37.7,29.68,WSW,248,0.4,2.5,85,0.00,,,0.02,WUHU216HW,2013-01-06 01:40:00,
2013-01-05 17:45:00,41.9,37.7,29.68,North,0,0.9,0.9,85,0.00,,,0.02,WUHU216HW,2013-01-06 01:45:00,
2013-01-05 17:50:00,41.8,37.5,29.67,WSW,248,0.0,0.9,85,0.00,,,0.02,WUHU216HW,2013-01-06 01:50:00,
2013-01-05 17:55:00,41.8,37.5,29.67,North,0,0.4,0.9,85,0.00,,,0.02,WUHU216HW,2013-01-06 01:55:00,
2013-01-05 18:00:00,41.8,37.8,29.67,West,270,0.4,1.8,86,0.00,,,0.02,WUHU216HW,2013-01-06 02:00:00,
2013-01-05 18:05:00,41.8,37.5,29.67,WSW,248,0.0,1.8,85,0.00,,,0.02,WUHU216HW,2013-01-06 02:05:00,
2013-01-05 18:10:00,41.8,37.5,29.68,SSW,203,1.1,2.5,85,0.00,,,0.02,WUHU216HW,2013-01-06 02:10:00,
2013-01-05 18:15:00,41.8,37.5,29.68,SSW,203,1.8,2.5,85,0.00,,,0.02,WUHU216HW,2013-01-06 02:15:00,
2013-01-05 18:20:00,41.8,37.5,29.68,SW,225,1.6,2.5,85,0.00,,,0.02,WUHU216HW,2013-01-06 02:20:00,
2013-01-05 18:25:00,41.8,37.5,29.68,SSW,203,1.3,3.4,85,0.00,,,0.02,WUHU216HW,2013-01-06 02:25:00,
2013-01-05 18:30:00,41.6,37.1,29.68,East,90,0.4,3.4,84,0.00,,,0.02,WUHU216HW,2013-01-06 02:30:00,
2013-01-05 18:35:00,41.6,37.1,29.68,NW,315,0.4,2.5,84,0.00,,,0.02,WUHU216HW,2013-01-06 02:35:00,
2013-01-05 18:40:00,41.6,37.1,29.68,North,0,0.4,1.6,84,0.00,,,0.02,WUHU216HW,2013-01-06 02:40:00,
2013-01-05 18:45:00,41.8,37.3,29.68,North,0,1.6,1.6,84,0.00,,,0.02,WUHU216HW,2013-01-06 02:45:00,
2013-01-05 18:50:00,41.8,37.5,29.68,ENE,68,0.2,1.8,85,0.00,,,0.02,WUHU216HW,2013-01-06 02:50:00,
2013-01-05 18:55:00,41.8,37.5,29.68,North,0,1.1,1.8,85,0.00,,,0.02,WUHU216HW,2013-01-06 02:55:00,
2013-01-05 19:00:00,41.8,37.5,29.68,NE,45,0.4,2.5,85,0.00,,,0.02,WUHU216HW,2013-01-06 03:00:00,
2013-01-05 19:05:00,41.6,37.1,29.69,North,0,0.4,2.5,84,0.00,,,0.02,WUHU216HW,2013-01-06 03:05:00,
2013-01-05 19:10:00,41.8,37.3,29.69,North,0,0.0,1.6,84,0.00,,,0.02,WUHU216HW,2013-01-06 03:10:00,
2013-01-05 19:15:00,41.6,37.1,29.69,North,0,0.4,1.1,84,0.00,,,0.02,WUHU216HW,2013-01-06 03:15:00,
2013-01-05 19:20:00,41.6,37.1,29.69,NNE,23,1.8,2.2,84,0.00,,,0.02,WUHU216HW,2013-01-06 03:20:00,
2013-01-05 19:25:00,41.6,37.1,29.69,NNE,23,0.2,2.2,84,0.00,,,0.02,WUHU216HW,2013-01-06 03:25:00,
2013-01-05 19:30:00,41.6,37.1,29.69,NNE,23,0.4,1.1,84,0.00,,,0.02,WUHU216HW,2013-01-06 03:30:00,
2013-01-05 19:35:00,41.4,36.9,29.69,North,0,1.3,2.7,84,0.00,,,0.02,WUHU216HW,2013-01-06 03:35:00,
2013-01-05 19:40:00,41.4,36.9,29.69,North,0,0.4,2.7,84,0.00,,,0.02,WUHU216HW,2013-01-06 03:40:00,
2013-01-05 19:45:00,41.4,36.9,29.69,North,0,1.1,1.3,84,0.00,,,0.02,WUHU216HW,2013-01-06 03:45:00,
2013-01-05 19:50:00,41.4,36.9,29.69,North,0,1.6,2.5,84,0.00,,,0.02,WUHU216HW,2013-01-06 03:50:00,
2013-01-05 19:55:00,41.4,36.9,29.69,North,0,0.9,2.5,84,0.00,,,0.02,WUHU216HW,2013-01-06 03:55:00,
2013-01-05 20:00:00,41.2,36.7,29.69,South,180,0.7,3.4,84,0.00,,,0.02,WUHU216HW,2013-01-06 04:00:00,
2013-01-05 20:05:00,41.4,36.9,29.68,North,0,0.7,3.4,84,0.00,,,0.02,WUHU216HW,2013-01-06 04:05:00,
2013-01-05 20:10:00,41.4,36.9,29.68,North,0,0.0,1.8,84,0.00,,,0.02,WUHU216HW,2013-01-06 04:10:00,
2013-01-05 20:15:00,41.4,36.5,29.67,North,0,2.2,2.2,83,0.00,,,0.02,WUHU216HW,2013-01-06 04:15:00,
2013-01-05 20:20:00,41.4,36.5,29.67,NNW,338,0.0,2.2,83,0.00,,,0.02,WUHU216HW,2013-01-06 04:20:00,
2013-01-05 20:25:00,41.4,36.5,29.67,WSW,248,1.3,2.2,83,0.00,,,0.02,WUHU216HW,2013-01-06 04:25:00,
2013-01-05 20:30:00,41.2,36.4,29.68,SW,225,0.0,2.2,83,0.00,,,0.02,WUHU216HW,2013-01-06 04:30:00,
2013-01-05 20:35:00,41.2,36.4,29.68,North,0,1.1,2.2,83,0.00,,,0.02,WUHU216HW,2013-01-06 04:35:00,
2013-01-05 20:40:00,41.0,36.2,29.68,SSW,203,1.1,1.3,83,0.00,,,0.02,WUHU216HW,2013-01-06 04:40:00,
2013-01-05 20:45:00,41.0,36.6,29.68,SSW,203,1.6,1.6,84,0.00,,,0.02,WUHU216HW,2013-01-06 04:45:00,
2013-01-05 20:50:00,41.0,36.6,29.69,WSW,248,0.0,2.7,84,0.00,,,0.02,WUHU216HW,2013-01-06 04:50:00,
2013-01-05 20:55:00,41.0,36.6,29.69,WSW,248,0.4,2.7,84,0.00,,,0.02,WUHU216HW,2013-01-06 04:55:00,
2013-01-05 21:00:00,41.0,36.6,29.69,WSW,248,1.3,1.6,84,0.00,,,0.02,WUHU216HW,2013-01-06 05:00:00,
2013-01-05 21:02:00,41.0,36.6,29.69,South,180,0.0,1.6,84,0.00,,,0.02,WUHU216HW,2013-01-06 05:02:00,
2013-01-05 21:05:00,41.0,36.6,29.69,SSW,203,0.0,1.6,84,0.00,,,0.02,WUHU216HW,2013-01-06 05:05:00,
2013-01-05 21:10:00,40.9,36.4,29.69,SSW,203,0.0,1.3,84,0.00,,,0.02,WUHU216HW,2013-01-06 05:10:00,
2013-01-05 21:15:00,40.9,36.4,29.69,SSW,203,0.0,0.0,84,0.00,,,0.02,WUHU216HW,2013-01-06 05:15:00,
2013-01-05 21:20:00,40.7,36.2,29.69,SSW,203,0.0,0.0,84,0.00,,,0.02,WUHU216HW,2013-01-06 05:20:00,
2013-01-05 21:25:00,40.7,36.5,29.68,NNE,23,1.6,1.6,85,0.01,,,0.02,WUHU216HW,2013-01-06 05:25:00,
2013-01-05 21:30:00,40.3,36.5,29.69,NNE,23,1.1,1.6,86,0.01,,,0.02,WUHU216HW,2013-01-06 05:30:00,
2013-01-05 21:35:00,40.0,36.4,29.68,NNE,23,0.0,1.6,87,0.01,,,0.02,WUHU216HW,2013-01-06 05:35:00,
2013-01-05 21:40:00,40.0,36.4,29.69,SW,225,1.3,1.8,87,0.01,,,0.02,WUHU216HW,2013-01-06 05:40:00,
2013-01-05 21:45:00,39.8,36.2,29.69,SW,225,0.7,1.8,87,0.02,,,0.04,WUHU216HW,2013-01-06 05:45:00,
2013-01-05 21:50:00,39.8,36.5,29.70,SW,225,0.0,1.3,88,0.02,,,0.04,WUHU216HW,2013-01-06 05:50:00,
2013-01-05 21:55:00,39.8,36.5,29.70,SW,225,0.0,0.7,88,0.03,,,0.05,WUHU216HW,2013-01-06 05:55:00,
2013-01-05 22:00:00,39.8,36.5,29.70,SW,225,0.7,0.7,88,0.03,,,0.05,WUHU216HW,2013-01-06 06:00:00,
2013-01-05 22:05:00,39.6,36.6,29.70,NNE,23,1.6,1.6,89,0.04,,,0.06,WUHU216HW,2013-01-06 06:05:00,
2013-01-05 22:10:00,39.6,36.6,29.70,NNE,23,0.7,1.6,89,0.05,,,0.07,WUHU216HW,2013-01-06 06:10:00,
2013-01-05 22:15:00,39.4,36.5,29.70,NNE,23,0.4,1.6,89,0.05,,,0.07,WUHU216HW,2013-01-06 06:15:00,
2013-01-05 22:20:00,39.4,36.5,29.70,North,0,0.0,1.8,89,0.05,,,0.08,WUHU216HW,2013-01-06 06:20:00,
2013-01-05 22:25:00,39.4,36.7,29.70,NNE,23,1.6,1.8,90,0.05,,,0.08,WUHU216HW,2013-01-06 06:25:00,
2013-01-05 22:30:00,39.2,36.5,29.70,NNE,23,1.6,1.8,90,0.06,,,0.09,WUHU216HW,2013-01-06 06:30:00,
2013-01-05 22:35:00,39.2,36.5,29.70,NNE,23,2.5,2.5,90,0.06,,,0.09,WUHU216HW,2013-01-06 06:35:00,
2013-01-05 22:40:00,39.2,36.5,29.70,NNE,23,1.3,2.5,90,0.05,,,0.09,WUHU216HW,2013-01-06 06:40:00,
2013-01-05 22:45:00,39.2,36.5,29.70,NNE,23,0.4,2.5,90,0.06,,,0.10,WUHU216HW,2013-01-06 06:45:00,
2013-01-05 22:50:00,39.2,36.8,29.70,North,0,0.0,2.0,91,0.06,,,0.10,WUHU216HW,2013-01-06 06:50:00,
2013-01-05 22:55:00,39.1,36.6,29.70,NNE,23,0.4,2.5,91,0.06,,,0.11,WUHU216HW,2013-01-06 06:55:00,
2013-01-05 23:00:00,39.1,36.6,29.70,NNE,23,0.4,2.5,91,0.05,,,0.11,WUHU216HW,2013-01-06 07:00:00,
2013-01-05 23:05:00,39.2,36.8,29.70,NNE,23,0.9,1.8,91,0.06,,,0.12,WUHU216HW,2013-01-06 07:05:00,
2013-01-05 23:10:00,39.2,36.8,29.70,NNE,23,2.0,2.0,91,0.05,,,0.12,WUHU216HW,2013-01-06 07:10:00,
2013-01-05 23:15:00,39.2,36.8,29.70,NNE,23,1.8,3.1,91,0.05,,,0.12,WUHU216HW,2013-01-06 07:15:00,
2013-01-05 23:20:00,39.1,36.6,29.70,NW,315,0.0,3.1,91,0.04,,,0.12,WUHU216HW,2013-01-06 07:20:00,
2013-01-05 23:25:00,39.1,36.9,29.71,SW,225,1.3,2.9,92,0.04,,,0.12,WUHU216HW,2013-01-06 07:25:00,
2013-01-05 23:30:00,39.1,36.9,29.70,SSW,203,0.0,1.3,92,0.03,,,0.12,WUHU216HW,2013-01-06 07:30:00,
2013-01-05 23:35:00,39.2,37.1,29.70,SSW,203,0.0,1.3,92,0.03,,,0.12,WUHU216HW,2013-01-06 07:35:00,
2013-01-05 23:40:00,39.2,37.1,29.71,SSW,203,0.0,0.4,92,0.02,,,0.12,WUHU216HW,2013-01-06 07:40:00,
2013-01-05 23:45:00,39.2,37.1,29.70,SSW,203,0.0,0.4,92,0.02,,,0.12,WUHU216HW,2013-01-06 07:45:00,
2013-01-05 23:50:00,39.1,36.9,29.71,North,0,0.0,1.1,92,0.02,,,0.12,WUHU216HW,2013-01-06 07:50:00,
2013-01-05 23:55:00,39.1,36.9,29.71,NNE,23,0.7,1.1,92,0.01,,,0.12,WUHU216HW,2013-01-06 07:55:00,